Location: Caltech
(34.1382°N, 118.1253°W)
Time: 20:15:55
(UTC-07:00)

Cosmos 1975 - Visible Passes

Search period start: 19 April 2014 00:00
Search period end: 29 April 2014 00:00
Orbit: 557 x 576 km, 82.5° (Epoch: 19 April)

Date Brightness Start Highest point End Pass type
(mag) Time Alt. Az. Time Alt. Az. Time Alt. Az.
25 Apr 5.8 22:34:55 10° NNE 22:35:05 11° NNE 22:35:05 11° NNE visible
26 Apr 5.7 22:35:32 10° N 22:36:04 13° N 22:36:04 13° N visible
27 Apr 5.5 22:36:11 10° N 22:37:02 16° N 22:37:02 16° N visible
28 Apr 5.4 22:36:52 10° N 22:38:01 18° N 22:38:01 18° N visible
